Location: Colossi of Memnon
(25.7167°N, 32.6167°E)
Time: 00:03:00
(UTC+00:00)

Nauka - Visible Passes

Search period start: 29 September 2021 00:00
Search period end: 09 October 2021 00:00
Orbit: 417 x 423 km, 51.6° (Epoch: 28 September)

Date Brightness Start Highest point End Pass type
(mag) Time Alt. Az. Time Alt. Az. Time Alt. Az.
05 Oct ? 16:56:18 10° N 16:57:30 17° N 16:57:30 17° N visible
06 Oct ? 16:09:52 10° N 16:11:29 13° NE 16:12:30 12° ENE visible
06 Oct ? 17:45:15 10° WNW 17:45:30 12° WNW 17:45:30 12° WNW visible
07 Oct ? 16:57:42 10° NW 17:00:41 69° NW 17:00:41 69° NW visible
08 Oct ? 16:10:26 10° NNW 16:13:39 43° NE 16:16:05 16° ESE visible
